Location: McFarlands Corners
(41.4117°N, 81.3382°W)
Time: 21:27:08
(UTC+00:00)

Tiros 1 despin weight - All Passes

Search period start: 08 November 2024 00:00
Search period end: 18 November 2024 00:00
Orbit: 571 x 611 km, 48.2° (Epoch: 06 November)

Date Brightness Start Highest point End Pass type
(mag) Time Alt. Az. Time Alt. Az. Time Alt. Az.
08 Nov - 10:02:36 10° S 10:05:52 20° SE 10:09:06 10° E visible
08 Nov - 11:41:59 10° WSW 11:46:24 87° NNW 11:50:48 10° ENE daylight
08 Nov - 13:23:40 10° WNW 13:27:44 36° N 13:31:46 10° ENE daylight
08 Nov - 15:05:18 10° WNW 15:09:22 37° N 15:13:23 10° E daylight
08 Nov - 16:46:17 10° WNW 16:50:37 83° SSW 16:54:54 10° ESE daylight
08 Nov - 18:28:19 10° W 18:31:02 16° SW 18:33:44 10° S daylight
09 Nov - 10:09:22 10° SSW 10:13:22 33° SE 10:17:19 10° ENE visible
09 Nov - 11:49:47 10° WSW 11:54:10 61° NNW 11:58:30 10° ENE daylight
09 Nov - 13:31:40 10° WNW 13:35:39 33° N 13:39:36 10° ENE daylight
09 Nov - 15:13:03 10° WNW 15:17:15 45° NNE 15:21:24 10° E daylight
09 Nov - 16:54:04 10° WNW 16:58:16 52° SW 17:02:25 10° SE daylight
10 Nov - 10:16:35 10° SW 10:20:55 54° SE 10:25:13 10° ENE visible
10 Nov - 11:57:42 10° W 12:01:58 46° NNW 12:06:11 10° ENE daylight
10 Nov - 13:39:34 10° WNW 13:43:34 33° N 13:47:31 10° ENE daylight
10 Nov - 15:20:44 10° WNW 15:25:03 61° NNE 15:29:18 10° ESE daylight
10 Nov - 17:01:58 10° WNW 17:05:48 32° SW 17:09:37 10° SSE daylight
11 Nov - 08:45:05 10° S 08:48:04 18° SE 08:51:01 10° E visible
11 Nov - 10:24:05 10° WSW 10:28:32 84° SSE 10:32:57 10° ENE visible
11 Nov - 12:05:40 10° W 12:09:48 38° N 12:13:53 10° ENE daylight
11 Nov - 13:47:22 10° WNW 13:51:26 36° N 13:55:27 10° ENE daylight
11 Nov - 15:28:23 10° WNW 15:32:45 88° NNE 15:37:03 10° ESE daylight
11 Nov - 17:10:09 10° W 17:13:14 19° SW 17:16:18 10° S daylight
12 Nov - 08:51:37 10° SSW 08:55:28 29° SE 08:59:18 10° E visible
12 Nov - 10:31:46 10° WSW 10:36:12 67° NNW 10:40:35 10° ENE visible
12 Nov - 12:13:36 10° WNW 12:17:38 34° N 12:21:37 10° ENE daylight
12 Nov - 13:55:04 10° WNW 13:59:15 43° NNE 14:03:23 10° E daylight
12 Nov - 15:36:03 10° WNW 15:40:20 60° SW 15:44:34 10° SE daylight
12 Nov - 17:19:26 10° WSW 17:20:33 11° SW 17:21:41 10° SW daylight
13 Nov - 08:58:38 10° SW 09:02:55 47° SE 09:07:11 10° ENE visible
13 Nov - 10:39:34 10° W 10:43:54 49° NNW 10:48:11 10° ENE visible
13 Nov - 12:21:28 10° WNW 12:25:28 33° N 12:29:27 10° ENE daylight
13 Nov - 14:02:41 10° WNW 14:07:00 56° NNE 14:11:15 10° E daylight
13 Nov - 15:43:50 10° WNW 15:47:50 37° SW 15:51:47 10° SSE daylight
14 Nov - 07:27:27 10° SSE 07:30:02 15° SE 07:32:37 10° E night (unlit)
14 Nov - 09:05:58 10° SW 09:10:26 75° SSE 09:14:52 10° ENE visible
14 Nov - 10:47:27 10° W 10:51:38 40° NNW 10:55:47 10° ENE visible
14 Nov - 12:29:13 10° WNW 12:33:17 35° N 12:37:17 10° ENE daylight
14 Nov - 14:10:15 10° WNW 14:14:39 79° NNE 14:18:57 10° ESE daylight
14 Nov - 15:51:49 10° W 15:55:12 22° SW 15:58:34 10° S daylight
15 Nov - 07:33:40 10° SSW 07:37:20 25° SE 07:41:00 10° E night (unlit)
15 Nov - 09:13:31 10° WSW 09:17:59 74° NNW 09:22:26 10° ENE visible
15 Nov - 10:55:18 10° WNW 10:59:23 35° N 11:03:26 10° ENE visible
15 Nov - 12:36:51 10° WNW 12:41:02 40° NNE 12:45:09 10° E daylight
15 Nov - 14:17:50 10° WNW 14:22:11 69° SSW 14:26:28 10° SE daylight
15 Nov - 16:00:26 10° WSW 16:02:29 13° SW 16:04:30 10° SSW daylight
16 Nov - 07:40:30 10° SSW 07:44:42 41° SE 07:48:53 10° ENE night (unlit)
16 Nov - 09:21:13 10° W 09:25:36 54° NNW 09:29:57 10° ENE visible
16 Nov - 11:03:06 10° WNW 11:07:09 33° N 11:11:09 10° ENE visible
16 Nov - 12:44:24 10° WNW 12:48:42 51° NNE 12:52:57 10° E daylight
16 Nov - 14:25:29 10° WNW 14:29:37 43° SW 14:33:42 10° SE daylight
17 Nov - 06:09:45 10° SSE 06:11:48 13° SE 06:13:50 10° ESE night (unlit)
17 Nov - 07:47:40 10° SW 07:52:07 66° SSE 07:56:32 10° ENE night (unlit)
17 Nov - 09:29:00 10° W 09:33:15 42° NNW 09:37:28 10° ENE visible
17 Nov - 11:10:48 10° WNW 11:14:53 34° N 11:18:54 10° ENE visible
17 Nov - 12:51:54 10° WNW 12:56:18 71° NNE 13:00:37 10° ESE daylight
17 Nov - 14:33:18 10° W 14:36:56 26° SW 14:40:32 10° SSE daylight
